Weather Roundup
Issued by NWS Chicago, IL

Home | Current Version | Previous Version | Graphics & Text | Print | Product List | Glossary On
Versions: 1 2 3 4 5 6 7 8 9 10 11 12 13 14 15 16 17 18 19 20 21 22 23 24 25 26 27 28 29 30 31 32 33 34 35 36 37 38 39 40 41 42 43 44 45 46 47 48 49 50
000
NZUS59 KLOT 110702
HRRLOT

CHICAGO AREA WEATHER ROUNDUP
NATIONAL WEATHER SERVICE CHICAGO/ROMEOVILLE IL
100 AM CST SUN DEC 11 2016

NOTE: "FAIR" INDICATES FEW OR NO CLOUDS BELOW 12,000 FEET WITH NO
SIGNIFICANT WEATHER AND/OR OBSTRUCTIONS TO VISIBILITY.

* THESE STATIONS ARE NOT UNDER NWS QUALITY CONTROL. THEY ALSO MAY NOT
  REPORT WEATHER SUCH AS PRECIPITATION OR FOG.

ILZ005-006-012>014-019>023-110800-
NORTHEAST ILLINOIS

CITY           SKY/WX    TMP DP  RH WIND       PRES   REMARKS
OHARE          LGT SNOW  24  20  84 SE10      30.24F FOG     WCI  14
MIDWAY         LGT SNOW  25  19  78 SE8       30.25F FOG     WCI  16
AURORA         CLOUDY    25  21  85 SE12      30.23F WCI  14
LANSING*       LGT SNOW  24  23  96 SE7       30.26F WCI  16
WAUKEGAN       LGT SNOW  23  20  88 S9        30.24F FOG     WCI  13
DUPAGE AIRPORT CLOUDY    24  19  81 SE8       30.22F WCI  15
WHEELING       LGT SNOW  23  20  88 S10       30.27F FOG     WCI  12
KANKAKEE*      CLOUDY    25  22  89 SE13      30.24F WCI  14
MORRIS*        CLOUDY    26  22  87 SE10      30.21F WCI  15
NORTHERLY ISL    N/A     24  21  88 S12         N/A  WCI  13
$$

WIZ051-052-058>065-066-070>072-110800-
SOUTHEAST WISCONSIN

CITY           SKY/WX    TMP DP  RH WIND       PRES   REMARKS
MILWAUKEE      LGT SNOW  23  20  88 S7        30.24F FOG     WCI  15
KENOSHA*       LGT SNOW  23  20  88 S8        30.25F VSB 1   WCI  14
RACINE*        LGT SNOW  24  20  84 S8        30.26F VSB 3/4 WCI  15
BURLINGTON     LGT SNOW  26  25  96 CALM      30.22F
WAUKESHA       LGT SNOW  19  18  93 SE7       30.23F WCI  10
WEST BEND      LGT SNOW  21  19  93 CALM      30.23F
$$

INZ001>003-010>013-019-020-110800-
NORTHWEST INDIANA

CITY           SKY/WX    TMP DP  RH WIND       PRES   REMARKS
GARY*          LGT SNOW  26  24  91 SE5       30.27F WCI  20
MICHIGAN CITY* NOT AVBL
RENSSELAER*    NOT AVBL
VALPARAISO     LGT SNOW  25  21  85 MISG      30.27F FOG
$$

LMZ740>746-110800-
SOUTHERN LAKE MICHIGAN

STATION/POSITION TIME  SKY/WX   TEMP WIND        PRES    VSBY
                                AIR  DIR/SP/G
                 (UTC)          (F)  (DEG/KT/KT) (MB)    (MI)
HARRISON CRIB    NOT AVBL
BURNHAM HARBOR   0700            24  160/  9/ 12   N/A
CALUMET HARBOR   0630            24  150/ 10/ 15 1024.3F
BURNS HARBOR     0640            24  170/  9/ 17 1025.7F
MICHIGAN CITY    NOT AVBL
$$

ABBREVIATIONS USED IN REMARKS
   TC - TEMPERATURE IN CELSIUS
  WCI - WIND CHILL INDEX
   HX - HEAT INDEX
  VSB - VISIBILITY
$$




USA.gov is the U.S. government's official web portal to all federal, state and local government web resources and services.